CST,Max TemperatureF,Mean TemperatureF,Min TemperatureF,Max Dew PointF,MeanDew PointF,Min DewpointF,Max Humidity, Mean Humidity, Min Humidity, Max Sea Level PressureIn, Mean Sea Level PressureIn, Min Sea Level PressureIn, Max VisibilityMiles, Mean VisibilityMiles, Min VisibilityMiles, Max Wind SpeedMPH, Mean Wind SpeedMPH, Max Gust SpeedMPH,PrecipitationIn, CloudCover, Events, WindDirDegrees
2011-11-1,72,55,38,43,36,31,76,55,34,30.14,30.08,30.00,10,10,10,17,10,29,0.00,0,,175
2011-11-2,72,59,45,45,40,36,80,58,35,30.08,30.01,29.93,10,10,8,20,9,26,0.00,5,,177
2011-11-3,47,43,38,45,41,34,93,82,70,30.20,29.99,29.81,10,7,2,24,14,33,1.28,7,Rain,31
2011-11-4,55,44,33,37,34,31,92,71,50,30.33,30.27,30.21,10,10,5,15,7,17,0.00,0,,60
2011-11-5,58,48,37,44,37,30,76,68,59,30.24,30.14,30.01,10,10,8,21,12,29,0.00,0,,153
2011-11-6,60,54,48,49,45,39,80,71,62,30.12,30.03,30.00,10,10,7,25,14,33,0.00,5,,185
2011-11-7,54,53,51,53,51,45,96,87,77,30.21,30.15,30.05,10,3,1,15,6,20,0.40,8,Rain,70
2011-11-8,58,53,48,55,51,46,100,95,89,30.05,29.94,29.82,10,4,2,16,7,21,1.09,8,Rain,55
2011-11-9,59,48,37,57,41,29,100,85,70,30.10,29.81,29.54,10,8,2,28,13,36,0.24,6,Rain,290
2011-11-10,41,37,32,29,26,24,82,68,54,30.14,30.11,30.07,10,10,10,21,10,26,T,5,,278
2011-11-11,50,39,27,33,28,23,92,67,42,30.10,29.93,29.79,10,10,10,25,9,31,0.00,0,,196
2011-11-12,62,48,33,47,37,31,89,63,36,29.85,29.74,29.57,10,10,10,25,14,35,0.00,1,,187
2011-11-13,73,60,47,52,41,30,83,54,24,29.65,29.50,29.39,10,10,10,35,16,45,0.00,0,,226
2011-11-14,59,51,42,45,39,33,76,63,50,29.78,29.63,29.56,10,10,10,13,4,15,0.01,3,,53
2011-11-15,64,51,37,42,36,26,85,60,34,29.93,29.79,29.71,10,10,7,21,6,26,0.00,0,,222
2011-11-16,45,37,28,20,16,9,56,41,25,30.24,30.13,29.95,10,10,10,18,8,28,0.00,0,,333
2011-11-17,43,34,24,15,13,10,60,44,27,30.33,30.26,30.22,10,10,10,20,9,26,0.00,0,,256
2011-11-18,53,41,28,25,20,15,63,44,24,30.22,30.04,29.87,10,10,10,31,17,43,0.00,0,,186
2011-11-19,57,50,43,50,37,24,83,64,45,30.00,29.84,29.73,10,10,10,24,15,32,0.00,6,,191
2011-11-20,45,41,36,36,33,30,79,73,67,30.31,30.22,30.04,10,10,8,17,8,24,T,7,,20
2011-11-21,50,43,36,38,36,33,85,73,61,30.29,30.22,30.13,10,10,6,16,10,20,0.00,6,,68
2011-11-22,43,42,40,41,39,37,96,89,82,30.12,29.97,29.83,6,2,1,17,9,22,0.32,8,Rain,27
2011-11-23,48,41,33,40,36,32,93,82,71,30.28,30.22,30.10,8,3,0,15,4,18,0.00,3,Fog,256
2011-11-24,53,47,41,45,41,39,96,84,71,30.27,30.20,30.09,10,6,2,21,13,26,0.00,5,,196
2011-11-25,58,49,39,45,42,37,93,77,61,30.08,29.96,29.87,10,9,5,22,15,29,0.00,0,,188
2011-11-26,57,49,40,55,47,37,100,86,71,29.90,29.85,29.76,10,5,2,21,12,26,1.36,8,Rain,219
2011-11-27,40,38,35,37,32,28,92,84,75,30.17,30.05,29.89,10,10,8,15,9,22,T,8,Rain,337
2011-11-28,39,35,31,30,28,26,82,76,70,30.18,30.07,29.94,10,10,10,17,8,26,0.00,7,,12
2011-11-29,40,34,27,30,25,19,85,72,59,30.11,30.00,29.88,10,10,9,21,11,33,0.00,3,,357
2011-11-30,42,32,21,24,18,10,81,54,27,30.21,30.14,30.09,10,10,10,10,5,12,0.00,0,,244